TimePDT,TemperatureF,Dew PointF,Humidity,Sea Level PressureIn,VisibilityMPH,Wind Direction,Wind SpeedMPH,Gust SpeedMPH,PrecipitationIn,Events,Conditions,WindDirDegrees,DateUTC
12:15 AM,50.0,46.4,87,30.14,8.0,WNW,9.2,-,N/A,,Overcast,290,2013-05-09 07:15:00
2:15 AM,50.0,46.4,87,30.14,7.0,West,9.2,-,N/A,,Overcast,280,2013-05-09 09:15:00
2:35 AM,50.0,44.6,82,30.14,5.0,West,9.2,-,N/A,,Haze,280,2013-05-09 09:35:00
2:55 AM,50.0,46.4,87,30.14,5.0,WNW,8.1,-,N/A,,Mostly Cloudy,290,2013-05-09 09:55:00
3:15 AM,50.0,46.4,87,30.13,6.0,West,9.2,-,N/A,,Haze,280,2013-05-09 10:15:00
4:55 AM,50.0,46.4,87,30.12,5.0,WNW,8.1,-,N/A,,Haze,290,2013-05-09 11:55:00
5:35 AM,50.0,46.4,87,30.12,6.0,West,6.9,-,N/A,,Haze,270,2013-05-09 12:35:00
7:55 AM,53.6,44.6,72,30.14,7.0,WNW,6.9,-,N/A,,Overcast,290,2013-05-09 14:55:00
8:15 AM,53.6,44.6,72,30.15,7.0,NW,8.1,-,N/A,,Overcast,310,2013-05-09 15:15:00
8:35 AM,53.6,44.6,72,30.15,7.0,WNW,8.1,-,N/A,,Overcast,290,2013-05-09 15:35:00
8:55 AM,55.4,44.6,67,30.15,8.0,NW,10.4,-,N/A,,Overcast,310,2013-05-09 15:55:00
9:15 AM,55.4,44.6,67,30.15,8.0,NW,11.5,16.1,N/A,,Mostly Cloudy,320,2013-05-09 16:15:00
9:35 AM,57.2,44.6,63,30.15,10.0,NW,13.8,-,N/A,,Scattered Clouds,320,2013-05-09 16:35:00
9:55 AM,59.0,44.6,59,30.15,10.0,NW,12.7,19.6,N/A,,Scattered Clouds,320,2013-05-09 16:55:00
10:15 AM,59.0,44.6,59,30.15,9.0,NNW,12.7,-,N/A,,Partly Cloudy,330,2013-05-09 17:15:00
10:35 AM,59.0,44.6,59,30.16,10.0,NW,13.8,-,N/A,,Clear,310,2013-05-09 17:35:00
10:55 AM,59.0,44.6,59,30.16,10.0,NNW,13.8,-,N/A,,Clear,330,2013-05-09 17:55:00
11:15 AM,59.0,44.6,59,30.16,10.0,NW,13.8,20.7,N/A,,Clear,310,2013-05-09 18:15:00
11:35 AM,59.0,44.6,59,30.16,10.0,NNW,12.7,17.3,N/A,,Clear,330,2013-05-09 18:35:00
11:55 AM,59.0,44.6,59,30.15,10.0,NW,12.7,16.1,N/A,,Clear,320,2013-05-09 18:55:00
12:15 PM,60.8,44.6,55,30.15,10.0,NW,10.4,18.4,N/A,,Clear,320,2013-05-09 19:15:00
12:35 PM,60.8,44.6,55,30.14,10.0,NNW,13.8,-,N/A,,Clear,330,2013-05-09 19:35:00
1:15 PM,60.8,44.6,55,30.15,10.0,NW,16.1,-,N/A,,Clear,320,2013-05-09 20:15:00
1:35 PM,62.6,44.6,52,30.14,10.0,NNW,15.0,20.7,N/A,,Clear,330,2013-05-09 20:35:00
1:55 PM,64.4,44.6,49,30.14,10.0,NW,15.0,20.7,N/A,Thunderstorm,Clear,310,2013-05-09 20:55:00
2:15 PM,60.8,44.6,55,30.15,10.0,NW,17.3,24.2,N/A,,Clear,310,2013-05-09 21:15:00
2:35 PM,57.2,46.4,67,30.16,8.0,WNW,16.1,20.7,N/A,Rain,Light Rain,300,2013-05-09 21:35:00
2:55 PM,57.2,46.4,67,30.15,8.0,NW,13.8,-,N/A,Rain,Light Rain,310,2013-05-09 21:55:00
3:15 PM,57.2,46.4,67,30.14,8.0,NW,13.8,-,N/A,Rain,Light Rain,320,2013-05-09 22:15:00
3:35 PM,59.0,46.4,63,30.14,10.0,NW,11.5,18.4,N/A,,Mostly Cloudy,320,2013-05-09 22:35:00
3:55 PM,62.6,46.4,55,30.13,9.0,NW,18.4,21.9,N/A,,Partly Cloudy,320,2013-05-09 22:55:00
4:15 PM,59.0,46.4,63,30.14,9.0,NW,16.1,21.9,N/A,,Clear,320,2013-05-09 23:15:00
4:35 PM,57.2,46.4,67,30.14,8.0,NW,16.1,21.9,N/A,,Scattered Clouds,320,2013-05-09 23:35:00
4:55 PM,55.4,48.2,77,30.15,4.0,NW,13.8,18.4,N/A,Rain,Light Rain,310,2013-05-09 23:55:00
5:35 PM,55.4,48.2,77,30.15,7.0,WNW,8.1,-,N/A,,Partly Cloudy,300,2013-05-10 00:35:00
5:55 PM,55.4,48.2,77,30.16,5.0,WNW,5.8,-,N/A,Rain,Light Rain,300,2013-05-10 00:55:00
6:15 PM,55.4,48.2,77,30.15,6.0,WNW,10.4,-,N/A,Rain,Light Rain,300,2013-05-10 01:15:00
6:35 PM,55.4,48.2,77,30.14,7.0,NW,8.1,-,N/A,,Mostly Cloudy,320,2013-05-10 01:35:00
6:55 PM,55.4,48.2,77,30.14,7.0,NW,6.9,-,N/A,,Scattered Clouds,320,2013-05-10 01:55:00
7:15 PM,55.4,48.2,77,30.14,7.0,NW,9.2,-,N/A,,Partly Cloudy,310,2013-05-10 02:15:00
7:35 PM,55.4,46.4,72,30.15,7.0,WNW,11.5,-,N/A,,Mostly Cloudy,300,2013-05-10 02:35:00
7:55 PM,55.4,48.2,77,30.15,7.0,West,10.4,-,N/A,,Mostly Cloudy,270,2013-05-10 02:55:00
8:15 PM,55.4,46.4,72,30.15,9.0,WNW,9.2,-,N/A,,Overcast,300,2013-05-10 03:15:00
8:35 PM,53.6,46.4,77,30.16,8.0,West,9.2,-,N/A,,Overcast,280,2013-05-10 03:35:00
8:55 PM,53.6,46.4,77,30.17,8.0,WNW,9.2,-,N/A,,Mostly Cloudy,290,2013-05-10 03:55:00
9:15 PM,51.8,46.4,82,30.19,8.0,WNW,6.9,-,N/A,,Scattered Clouds,300,2013-05-10 04:15:00
9:35 PM,51.8,46.4,82,30.19,8.0,West,9.2,-,N/A,,Partly Cloudy,280,2013-05-10 04:35:00
9:55 PM,51.8,46.4,82,30.19,8.0,WNW,9.2,-,N/A,,Clear,290,2013-05-10 04:55:00
10:15 PM,53.6,46.4,77,30.19,9.0,WNW,8.1,-,N/A,,Clear,290,2013-05-10 05:15:00
10:35 PM,51.8,46.4,82,30.18,8.0,West,8.1,-,N/A,,Clear,270,2013-05-10 05:35:00
10:55 PM,51.8,46.4,82,30.18,8.0,West,10.4,-,N/A,,Clear,280,2013-05-10 05:55:00
11:15 PM,53.6,46.4,77,30.18,8.0,WNW,11.5,-,N/A,,Clear,290,2013-05-10 06:15:00
11:35 PM,53.6,46.4,77,30.17,8.0,WNW,10.4,-,N/A,,Clear,290,2013-05-10 06:35:00
11:55 PM,53.6,46.4,77,30.18,9.0,West,9.2,-,N/A,,Clear,280,2013-05-10 06:55:00